STARLINK-33730, 63439

Orbit data source: Space-Track

STARLINK-33730, 63439 is a payload satellite owned by SpaceX/Seattle (US) in LEO that was launched on Fri, 04 Apr 2025 UTC via an FALCON 9 launch vehicle from the Air Force Western Test Range (AFWTR). Payload-class satellites include a variety of spacecraft equipped with specific instruments for various scientific and technological missions. These include communications satellites like Starlink; space stations such as the ISS; scientific satellites like the Hubble; Earth observation satellites from companies like Planet Labs, Umbra, and HawkEye 360; GPS; miniature CubeSats for education and research; and military/defense satellites.

Loading next visibility...
Identifier
63439, 2025-069G
Orbit
LEO
Country
Flag of USUS
Related business
Manufacturer
SpaceX/Seattle
Mission
Operational Commercial Communications
Bus & Motor
STARLINK V2MO, Unknown motor
Mass
575 kg wet, ~530 kg dry
Launch date (UTC)
2025-04-04 (8 months ago)
Launch vehicle
FALCON 9
Launch site
Air Force Western Test Range (AFWTR)
Object type
Payload
Rocket body
Debris
Shape & HBR
Box + 2 Pan, 17.7 m
Radar Cross Section
36.964 m², Large (>1 m²)

Expand to show TLE details & history
Last TLE update: 21 hours ago

TLE from 21 hours ago
0 STARLINK-33730
1 63439U 25069G   25348.81439116  .00012516  00000-0  43389-3 0  9997
2 63439  53.1561 176.4521 0001177 100.4779 259.6355 15.30206980 40416
Epoch: 2025-12-14T19:32Z
TLE epoch observation values (Epoch: 2025-12-14T19:32:43.396Z)
Latitude
0.00004°
Longitude
159.54941°
Altitude
476.239 km
Speed
7.629 km/s
True Right ascension
11h 45m 48s
True Declination
0° 00' 00"
Sunlit
Object was in daylight at epoch
Visualization orbit readout
Latitude
Unknown
Longitude
Unknown
Altitude
Unknown
Speed
Unknown
Apparent Right ascension
Unknown
Apparent Declination
Unknown
Sunlit
N/A
Visualization observer readout
Local Sidereal Time
15:11:35
Azimuth
Unknown
Elevation
Unknown
Doppler factor
Unknown
Orbital elements
Apogee altitude
476.258 km
Perigee altitude
474.645 km
Semi-major axis
6,853.588 km
Eccentricity
0.00012
Inclination
53.1561°
RAAN
176.4521°
Arg. of periapsis
100.4779°
True anomaly
259.62223°
Mean anomaly
259.6355°
Eccentric anomaly
259.62887°
Mean motion
3.82531 °/min
Orbital period
94.11 mins
BSTAR
0.00043389
Loading maneuver chart data...
Computing Atmospheric mass density...
Loading historical data...
Loading historical data...
Loading historical data...
Loading historical data...
Loading historical data...
Loading historical data...
Loading historical data...

Documentation

Showing up to 5 results
|